Flag for India Weather past 2 weeks in Pudukkottai, Tamil Nadu, India

Now
77 °F

Fog.


Feels Like: 78 °F
Forecast: 70 / 84 °F
Wind: 6 mph from Northeast

Location: Tiruchchirapalli

Current Time: Dec 19, 2014 at 9:30:18 PM

Latest Report: Dec 19, 2014 at 8:10 PM


Visibility: 2 mi

Pressure: 29.98 "Hg

Humidity: 83%

Dew point: 72 °F

Location of PudukkottaiLocation

Historic Weather in Pudukkottai — Graph

°F

Pudukkottai temperature yesterday

Maximum temperature yesterday: 81 °F (at 12:10 PM)
Minimum temperature yesterday: 72 °F (at 6:40 AM)
Average temperature yesterday: 76 °F

Past Weeks' High & Low Weather Summary

 TemperatureHumidityPressure
High91 °F (Dec 9, 1:40 PM)100% (Dec 11, 6:10 AM)30.01 "Hg (Dec 11, 6:10 AM)
Low66 °F (Dec 5, 5:40 AM)51% (Dec 5, 12:40 PM)29.80 "Hg (Dec 7, 3:40 PM)
Average79 °F82%29.91 "Hg
* Reported Dec 4 7:40 PM — Dec 19 8:10 PM, Pudukkottai, Weather by CustomWeather, © 2014

Note: Actual official high and low records may vary slightly from our data, if they occured in-between our weather recording intervals... More about our weather records

Advertising

Pudukkottai weather history for previous 24 hours

 ConditionsComfort  
Time TempWeatherWind HumidityBarometerVisibility
8:10 PM
Dec 19
77 °FFog.6 mph83%29.98 "Hg1 mi
7:40 PM77 °FFog.7 mph83%29.98 "Hg1 mi
7:10 PM77 °FFog.7 mph83%29.95 "Hg1 mi
6:40 PM77 °FFog.7 mph89%29.95 "Hg1 mi
6:10 PM77 °FFog.7 mph89%29.95 "Hg1 mi
5:40 PM77 °FFog.9 mph89%29.92 "Hg1 mi
5:10 PM77 °FFog.9 mph89%29.92 "Hg1 mi
4:40 PM77 °FFog.7 mph89%29.92 "Hg1 mi
4:10 PM77 °FFog.7 mph89%29.92 "Hg1 mi
3:40 PM77 °FFog.7 mph89%29.92 "Hg1 mi
1:40 PM77 °FDrizzle. More clouds than sun.9 mph89%29.95 "Hg1 mi
1:10 PM77 °FDrizzle. More clouds than sun.8 mph89%29.95 "Hg1 mi
12:40 PM77 °FDrizzle. More clouds than sun.9 mph89%29.98 "Hg1 mi
12:10 PM77 °FDrizzle. More clouds than sun.10 mph89%29.98 "Hg1 mi
11:40 AM77 °FFog.9 mph89%29.98 "Hg1 mi
11:10 AM77 °FFog.13 mph89%30.01 "Hg1 mi
10:40 AM77 °FFog.10 mph89%30.01 "Hg1 mi
10:10 AM77 °FFog.8 mph89%30.01 "Hg1 mi
9:40 AM77 °FFog.8 mph83%30.01 "Hg1 mi
9:10 AM77 °FFog.9 mph83%30.01 "Hg1 mi
8:40 AM75 °FFog.10 mph94%30.01 "Hg1 mi
7:40 AM75 °FFog.6 mph94%29.98 "Hg1 mi
7:10 AM75 °FFog.7 mph94%29.95 "Hg1 mi
6:40 AM75 °FFog.9 mph94%29.95 "Hg1 mi
5:40 AM75 °FFog.7 mph94%29.92 "Hg1 mi
5:10 AM75 °FFog.9 mph94%29.92 "Hg1 mi
4:40 AM75 °FFog.6 mph94%29.92 "Hg1 mi
4:10 AM75 °FFog.9 mph94%29.92 "Hg1 mi
3:40 AM75 °FFog.7 mph94%29.92 "Hg1 mi
2:40 AM75 °FFog.7 mph94%29.92 "Hg2 mi
1:40 AM75 °FFog.8 mph94%29.95 "Hg2 mi
1:10 AM75 °FFog.8 mph94%29.95 "Hg2 mi
12:40 AM75 °FFog.7 mph94%29.95 "Hg2 mi
12:10 AM75 °FFog.7 mph100%29.95 "Hg2 mi
11:40 PM
Dec 18
75 °FFog.7 mph100%29.95 "Hg2 mi
11:10 PM77 °FFog.6 mph94%29.95 "Hg2 mi
10:40 PM77 °FFog.7 mph94%29.95 "Hg2 mi
10:10 PM77 °FFog.7 mph94%29.98 "Hg2 mi
9:40 PM77 °FFog.5 mph94%29.98 "Hg2 mi
Weather by CustomWeather, © 2014

See weather overviewHow to use our weather pages